When you browse on this site, cookies collect data to enhance your experience and personalize the content and advertising you see.
Visit our Privacy Policy to learn more. By continuing to use the site, you agree to this use of cookies and data.
  • In Portugal
  • List of Countries
  • For 7 days
  • Water Temperature
  • Satellite Maps
  • Weather Map
  • Weather Widgets
  • user-avatar
    Login

    Hourly Weather Trinidad

    Today, 21 April, Sunday

    Time Temperature Precipitation Wind Pressure Humidity
    00:00 +27°C° 0 mm 2 mps 743 mmHg 89%
    01:00 +27°C° 0 mm 2 mps 743 mmHg 90%
    02:00 +27°C° 0 mm 1 mps 743 mmHg 90%
    03:00 +26°C° 0 mm 1 mps 743 mmHg 91%
    04:00 +26°C° 0 mm 1 mps 743 mmHg 92%
    05:00 +26°C° 0 mm 1 mps 743 mmHg 93%
    06:00 +27°C° 0 mm 1 mps 743 mmHg 90%
    07:00 +27°C° 0 mm 2 mps 744 mmHg 88%
    08:00 +28°C° 0 mm 2 mps 744 mmHg 85%
    09:00 +29°C° 0.1 mm 2 mps 744 mmHg 79%
    10:00 +31°C° 0.1 mm 2 mps 744 mmHg 73%
    11:00 +34°C° 0.1 mm 3 mps 745 mmHg 67%
    12:00 +34°C° 0.1 mm 3 mps 743 mmHg 64%
    13:00 +35°C° 0.1 mm 3 mps 742 mmHg 62%
    14:00 +35°C° 0.1 mm 3 mps 741 mmHg 59%
    15:00 +35°C° 0 mm 3 mps 741 mmHg 62%
    16:00 +34°C° 0 mm 2 mps 740 mmHg 66%
    17:00 +34°C° 0 mm 2 mps 740 mmHg 69%
    18:00 +31°C° 0 mm 2 mps 740 mmHg 74%
    19:00 +30°C° 0 mm 1 mps 740 mmHg 79%
    20:00 +29°C° 0 mm 1 mps 741 mmHg 84%
    21:00 +28°C° 0 mm 1 mps 741 mmHg 85%
    22:00 +28°C° 0 mm 1 mps 742 mmHg 86%
    23:00 +28°C° 0 mm 1 mps 742 mmHg 87%

    Tomorrow, 22 April, Monday

    Time Temperature Precipitation Wind Pressure Humidity
    00:00 +27°C° 0 mm 1 mps 742 mmHg 87%
    01:00 +27°C° 0 mm 1 mps 742 mmHg 88%
    02:00 +27°C° 0 mm 1 mps 742 mmHg 88%
    03:00 +27°C° 0 mm 2 mps 742 mmHg 88%
    04:00 +27°C° 0 mm 2 mps 741 mmHg 88%
    05:00 +26°C° 0 mm 2 mps 741 mmHg 89%
    06:00 +27°C° 0 mm 2 mps 742 mmHg 87%
    07:00 +28°C° 0 mm 2 mps 742 mmHg 85%
    08:00 +28°C° 0 mm 2 mps 743 mmHg 84%
    09:00 +30°C° 0 mm 3 mps 743 mmHg 76%
    10:00 +33°C° 0 mm 3 mps 743 mmHg 67%
    11:00 +35°C° 0 mm 3 mps 743 mmHg 59%
    12:00 +35°C° 0 mm 3 mps 742 mmHg 57%
    13:00 +36°C° 0 mm 3 mps 741 mmHg 54%
    14:00 +37°C° 0 mm 3 mps 740 mmHg 52%
    15:00 +36°C° 0 mm 3 mps 740 mmHg 56%
    16:00 +35°C° 0 mm 2 mps 740 mmHg 61%
    17:00 +34°C° 0 mm 2 mps 740 mmHg 65%
    18:00 +32°C° 0 mm 2 mps 740 mmHg 72%
    19:00 +30°C° 0 mm 2 mps 741 mmHg 78%
    20:00 +28°C° 0 mm 1 mps 741 mmHg 84%
    21:00 +28°C° 0.1 mm 1 mps 742 mmHg 85%
    22:00 +28°C° 0.1 mm 1 mps 743 mmHg 85%
    23:00 +28°C° 0.1 mm 1 mps 743 mmHg 86%

    Day after tomorrow, 23 April, Tuesday

    Time Temperature Precipitation Wind Pressure Humidity
    00:00 +27°C° 5.1 mm 1 mps 743 mmHg 90%
    01:00 +27°C° 5.1 mm 1 mps 743 mmHg 94%
    02:00 +26°C° 5.1 mm 1 mps 743 mmHg 98%
    03:00 +26°C° 2.9 mm 1 mps 743 mmHg 96%
    04:00 +26°C° 2.9 mm 1 mps 743 mmHg 95%
    05:00 +24°C° 2.9 mm 0 mps 743 mmHg 94%
    06:00 +26°C° 0.4 mm 1 mps 744 mmHg 94%
    07:00 +26°C° 0.4 mm 1 mps 744 mmHg 94%
    08:00 +26°C° 0.4 mm 1 mps 745 mmHg 95%
    09:00 +27°C° 1 mm 2 mps 745 mmHg 94%
    10:00 +27°C° 1 mm 2 mps 745 mmHg 93%
    11:00 +28°C° 1 mm 2 mps 746 mmHg 91%
    12:00 +29°C° 0.6 mm 2 mps 745 mmHg 88%
    13:00 +29°C° 0.6 mm 2 mps 744 mmHg 84%
    14:00 +30°C° 0.6 mm 1 mps 743 mmHg 80%
    15:00 +30°C° 0.2 mm 1 mps 743 mmHg 79%
    16:00 +30°C° 0.2 mm 1 mps 743 mmHg 79%
    17:00 +28°C° 0.2 mm 0 mps 742 mmHg 78%
    18:00 +29°C° 0 mm 1 mps 743 mmHg 82%
    19:00 +28°C° 0 mm 1 mps 743 mmHg 86%
    20:00 +27°C° 0 mm 1 mps 744 mmHg 91%
    21:00 +26°C° 0.5 mm 1 mps 744 mmHg 92%
    22:00 +26°C° 0.5 mm 1 mps 745 mmHg 94%
    23:00 +26°C° 0.5 mm 1 mps 745 mmHg 96%

    24 April, Wednesday

    Time Temperature Precipitation Wind Pressure Humidity
    00:00 +26°C° 1.2 mm 1 mps 745 mmHg 96%
    01:00 +25°C° 1.2 mm 1 mps 745 mmHg 97%
    02:00 +25°C° 1.2 mm 2 mps 744 mmHg 97%
    03:00 +25°C° 0.8 mm 2 mps 744 mmHg 97%
    04:00 +25°C° 0.8 mm 2 mps 745 mmHg 97%
    05:00 +25°C° 0.8 mm 2 mps 745 mmHg 97%
    06:00 +25°C° 0.5 mm 2 mps 745 mmHg 96%
    07:00 +25°C° 0.5 mm 2 mps 746 mmHg 96%
    08:00 +25°C° 0.5 mm 2 mps 747 mmHg 95%
    09:00 +26°C° 0 mm 2 mps 747 mmHg 89%
    10:00 +28°C° 0 mm 2 mps 747 mmHg 82%
    11:00 +29°C° 0 mm 2 mps 748 mmHg 76%
    12:00 +30°C° 0 mm 2 mps 747 mmHg 73%
    13:00 +31°C° 0 mm 2 mps 745 mmHg 70%
    14:00 +32°C° 0 mm 1 mps 744 mmHg 67%
    15:00 +31°C° 0 mm 1 mps 744 mmHg 69%
    16:00 +31°C° 0 mm 1 mps 743 mmHg 71%
    17:00 +31°C° 0 mm 1 mps 743 mmHg 73%
    18:00 +30°C° 0 mm 1 mps 743 mmHg 77%
    19:00 +28°C° 0 mm 1 mps 744 mmHg 81%
    20:00 +27°C° 0 mm 1 mps 744 mmHg 85%
    21:00 +26°C° 0.3 mm 1 mps 745 mmHg 87%
    22:00 +26°C° 0.3 mm 1 mps 745 mmHg 90%
    23:00 +25°C° 0.3 mm 1 mps 746 mmHg 92%

    25 April, Thursday

    Time Temperature Precipitation Wind Pressure Humidity
    00:00 +25°C° 0.4 mm 1 mps 745 mmHg 93%
    01:00 +25°C° 0.4 mm 1 mps 745 mmHg 94%
    02:00 +25°C° 0.4 mm 1 mps 745 mmHg 94%
    03:00 +24°C° 1.2 mm 1 mps 745 mmHg 95%
    04:00 +24°C° 1.2 mm 1 mps 745 mmHg 96%
    05:00 +24°C° 1.2 mm 1 mps 745 mmHg 97%
    06:00 +24°C° 0.6 mm 1 mps 746 mmHg 97%
    07:00 +25°C° 0.6 mm 1 mps 746 mmHg 96%
    08:00 +25°C° 0.6 mm 1 mps 747 mmHg 96%
    09:00 +26°C° 0.2 mm 1 mps 747 mmHg 94%
    10:00 +26°C° 0.2 mm 1 mps 747 mmHg 93%
    11:00 +27°C° 0.2 mm 1 mps 748 mmHg 91%
    12:00 +27°C° 0.8 mm 1 mps 747 mmHg 91%
    13:00 +28°C° 0.8 mm 1 mps 746 mmHg 91%
    14:00 +28°C° 0.8 mm 1 mps 745 mmHg 90%
    15:00 +28°C° 0.2 mm 1 mps 745 mmHg 88%
    16:00 +29°C° 0.2 mm 1 mps 745 mmHg 86%
    17:00 +29°C° 0.2 mm 1 mps 744 mmHg 84%
    18:00 +28°C° 0 mm 1 mps 745 mmHg 88%
    19:00 +27°C° 0 mm 1 mps 745 mmHg 91%
    20:00 +23°C° 0 mm 0 mps 745 mmHg 95%
    21:00 +23°C° 0 mm 0 mps 746 mmHg 94%
    22:00 +23°C° 0 mm 0 mps 746 mmHg 94%
    23:00 +23°C° 0 mm 0 mps 746 mmHg 94%

    26 April, Friday

    Time Temperature Precipitation Wind Pressure Humidity
    00:00 +23°C° 0.3 mm 0 mps 746 mmHg 94%
    01:00 +23°C° 0.3 mm 0 mps 746 mmHg 95%
    02:00 +23°C° 0.3 mm 0 mps 745 mmHg 96%
    03:00 +23°C° 0.2 mm 0 mps 745 mmHg 96%
    04:00 +23°C° 0.2 mm 0 mps 745 mmHg 96%
    05:00 +22°C° 0.2 mm 0 mps 745 mmHg 97%
    06:00 +23°C° 0.2 mm 0 mps 746 mmHg 96%
    07:00 +23°C° 0.2 mm 0 mps 747 mmHg 95%
    08:00 +23°C° 0.2 mm 0 mps 747 mmHg 94%
    09:00 +24°C° 1.2 mm 0 mps 747 mmHg 95%
    10:00 +24°C° 1.2 mm 0 mps 747 mmHg 96%
    11:00 +24°C° 1.2 mm 0 mps 747 mmHg 96%
    12:00 +25°C° 0.3 mm 0 mps 746 mmHg 92%
    13:00 +26°C° 0.3 mm 0 mps 745 mmHg 88%
    14:00 +27°C° 0.3 mm 0 mps 745 mmHg 83%
    15:00 +27°C° 0 mm 0 mps 744 mmHg 82%
    16:00 +29°C° 0 mm 1 mps 744 mmHg 80%
    17:00 +29°C° 0 mm 1 mps 743 mmHg 78%
    18:00 +28°C° 0 mm 1 mps 743 mmHg 83%
    19:00 +27°C° 0 mm 1 mps 744 mmHg 87%
    20:00 +26°C° 0 mm 1 mps 744 mmHg 91%
    21:00 +26°C° 0 mm 1 mps 744 mmHg 91%
    22:00 +23°C° 0 mm 0 mps 745 mmHg 91%
    23:00 +23°C° 0 mm 0 mps 745 mmHg 92%
    Show more